Location: Rounton
(54.4000°N, 1.3500°W)
Time: 22:16:06
(UTC+00:00)

Tiros 1 despin weight - Pass Details

Date: 09 December 2021
Orbit: 592 x 641 km, 48.2° (Epoch: 16 January)

Event Time Altitude Azimuth Distance (km) Brightness Sun altitude
Rises 13:18:56 0° 248° (WSW) 2,842 ? 10.8°
Reaches altitude 10° 13:21:21 10° 240° (WSW) 1,934 ? 10.7°
Maximum altitude 13:25:24 36° 174° (S) 949 ? 10.5°
Drops below altitude 10° 13:29:26 10° 108° (ESE) 1,923 ? 10.3°
Sets 13:31:50 0° 99° (E) 2,824 ? 10.1°
